Mason City, IA

8:21 PM CDT on June 26, 2017 (GMT -0500)
Mason City Municipal

Weather History for KMCW - September, 2013

Change the Weather History Date:

Friday, September 27, 2013

  Actual Average Record
Temperature  
Mean Temperature 74 °F 56 °F  
Max Temperature 86 °F 69 °F 86 °F (1963)
Min Temperature 62 °F 43 °F 22 °F (1896)
Degree Days  
Heating Degree Days 0 10  
Month to date heating degree days 100 145  
Since 1 July heating degree days 138 181  
Cooling Degree Days 9 1  
Month to date cooling degree days 120 52  
Year to date cooling degree days 712 608  
Growing Degree Days 24 (Base 50)    
Moisture  
Dew Point 60 °F    
Average Humidity 65    
Maximum Humidity 90    
Minimum Humidity 40    
Precipitation  
Precipitation 0.00 in 0.10 in 1.52 in (1965)
Month to date precipitation 0.81 2.97  
Year to date precipitation 34.16 29.33  
Snow  
Snow 0.00 in 0.00 in 0.00 in (2002)
Month to date snowfall 0.0 0.0  
Since 1 July snowfall 0.0 0.0  
Since 1 September snowfall 0.0 0.0  
Snow Depth 0.00 in    
Sea Level Pressure  
Sea Level Pressure 29.91 in    
Wind  
Wind Speed 16 mph (SSE)    
Max Wind Speed 30 mph    
Max Gust Speed 38 mph    
Visibility 10 miles    
Events      
T = Trace of Precipitation, MM = Missing Value Source: NWS Daily Summary

Daily Weather History Graph

Daily Weather History Graph

Search for Another Location

Airport or City:

Trip Planner

Search our weather history database for the weather conditions in past years. The results will help you decide how hot, cold, wet, or windy it might be!

Date:

Astronomy

Sep. 27, 2013 Rise Set
Actual Time 7:06 AM CDT 7:01 PM CDT
Civil Twilight 6:38 AM CDT 7:29 PM CDT
Nautical Twilight 6:04 AM CDT 8:02 PM CDT
Astronomical Twilight 5:31 AM CDT 8:36 PM CDT
Moon No Moon Rise 2:48 PM CDT
Length of Visible Light 12h 51m
Length of Day
11h 54m
Last Quarter, 45% of the Moon is Illuminated
Sep 27
Last Quarter
Oct 4
New
Oct 11
First Quarter
Oct 18
Full
Oct 26
Last Quarter

Hourly Weather History & Observations

Time (CDT) Temp. Heat Index Dew Point Humidity Pressure Visibility Wind Dir Wind Speed Gust Speed Precip Events Conditions
12:53 AM 64.9 °F - 59.0 °F 81% 29.94 in 10.0 mi SSE 11.5 mph - N/A   Clear
1:53 AM 64.0 °F - 59.0 °F 84% 29.94 in 10.0 mi SSE 15.0 mph - N/A   Clear
2:53 AM 64.0 °F - 59.0 °F 84% 29.94 in 9.0 mi SSE 12.7 mph - N/A   Clear
3:53 AM 63.0 °F - 59.0 °F 87% 29.93 in 9.0 mi SSE 12.7 mph - N/A   Clear
4:53 AM 63.0 °F - 59.0 °F 87% 29.93 in 8.0 mi SSE 12.7 mph - N/A   Clear
5:53 AM 62.1 °F - 59.0 °F 90% 29.94 in 8.0 mi SSE 12.7 mph - N/A   Clear
6:53 AM 62.1 °F - 59.0 °F 90% 29.94 in 8.0 mi SSE 13.8 mph 20.7 mph N/A   Clear
7:53 AM 62.1 °F - 59.0 °F 90% 29.96 in 7.0 mi SSE 12.7 mph - N/A   Clear
8:53 AM 66.0 °F - 60.1 °F 81% 29.96 in 9.0 mi South 16.1 mph 25.3 mph N/A   Mostly Cloudy
9:53 AM 70.0 °F - 62.1 °F 76% 29.95 in 10.0 mi SSE 19.6 mph 26.5 mph N/A   Overcast
10:53 AM 75.0 °F - 62.1 °F 64% 29.94 in 10.0 mi SSE 16.1 mph 27.6 mph N/A   Clear
11:53 AM 80.1 °F 81.5 °F 63.0 °F 56% 29.93 in 10.0 mi SSE 18.4 mph - N/A   Clear
12:53 PM 84.0 °F 84.4 °F 61.0 °F 46% 29.89 in 10.0 mi SSE 21.9 mph 31.1 mph N/A   Clear
1:53 PM 86.0 °F 85.4 °F 59.0 °F 40% 29.86 in 10.0 mi SSE 18.4 mph 38.0 mph N/A   Clear
2:53 PM 86.0 °F 85.4 °F 59.0 °F 40% 29.85 in 10.0 mi SSE 21.9 mph 32.2 mph N/A   Clear
3:53 PM 84.9 °F 84.4 °F 59.0 °F 41% 29.85 in 10.0 mi SSE 26.5 mph 34.5 mph N/A   Clear
4:53 PM 82.9 °F 83.2 °F 60.1 °F 46% 29.86 in 10.0 mi SSE 21.9 mph 31.1 mph N/A   Clear
5:53 PM 81.0 °F 81.6 °F 60.1 °F 49% 29.87 in 10.0 mi SSE 18.4 mph 23.0 mph N/A   Clear
6:53 PM 77.0 °F - 60.1 °F 56% 29.87 in 10.0 mi SSE 13.8 mph - N/A   Clear
7:53 PM 73.0 °F - 60.1 °F 64% 29.88 in 10.0 mi SE 9.2 mph - N/A   Clear
8:53 PM 71.1 °F - 60.1 °F 68% 29.88 in 10.0 mi SE 12.7 mph - N/A   Clear
9:53 PM 70.0 °F - 60.1 °F 71% 29.88 in 10.0 mi SSE 13.8 mph - N/A   Clear
10:53 PM 69.1 °F - 60.1 °F 73% 29.88 in 10.0 mi SSE 12.7 mph - N/A   Clear
11:53 PM 66.9 °F - 59.0 °F 76% 29.86 in 10.0 mi SSE 15.0 mph - N/A   Clear